Regional Weather Roundup
Issued by NWS

Home | Current Version | Previous Version | Text Only | Print | Product List | Glossary Off
Versions: 1 2 3 4 5 6 7 8 9 10 11 12 13 14 15 16 17 18 19 20 21 22 23 24 25 26 27 28 29 30 31 32 33 34 35 36 37 38 39 40 41 42 43 44 45 46 47 48 49 50

000
ASUS43 KDTX 241801
RWRMI
MICHIGAN HOURLY REGIONAL WEATHER ROUNDUP
NATIONAL WEATHER SERVICE DETROIT/PONTIAC MI
200 PM EDT SUN JUL 24 2016

NOTE: "FAIR" INDICATES FEW OR NO CLOUDS BELOW 12,000 FEET WITH NO
SIGNIFICANT WEATHER AND/OR OBSTRUCTION TO VISIBILITY.

MIZ047>049-052>055-059>063-066>070-074>076-081>083-241900-
SOUTHEAST LOWER MICHIGAN

CITY           SKY/WX    TMP DP  RH WIND       PRES   REMARKS
ADRIAN         LGT RAIN  72  70  93 W6        30.00F
6HR MIN TEMP:  70; 6HR MAX TEMP:  75; 6HR PCP:  0.08;

ALMA           CLOUDY    76  72  88 SW13      29.93F
ANN ARBOR      LGT RAIN  74  72  93 S8        29.97F
BAD AXE        CLOUDY    78  69  76 SW10G18   29.94S
CARO           CLOUDY    76  71  85 SW5       29.94F
DETROIT CITY   CLOUDY    77  74  90 W10       29.96F
6HR MIN TEMP:  75; 6HR MAX TEMP:  79; 6HR PCP:  0.12;

DETROIT        CLOUDY    75  71  87 SW9       29.97F
6HR MIN TEMP:  75; 6HR MAX TEMP:  80; 6HR PCP:  0.09;

FLINT          CLOUDY    76  70  82 SW9       29.96R
6HR MIN TEMP:  74; 6HR MAX TEMP:  80; 6HR PCP:  0.15;

GROSSE ILE     CLOUDY    75  71  85 W10       29.96F
6HR MIN TEMP:  75; 6HR MAX TEMP:  81; 6HR PCP:  0.02;

HOWELL         LGT RAIN  71  70  96 CALM      29.98R
6HR MIN TEMP:  71; 6HR MAX TEMP:  76;


CITY           SKY/WX    TMP DP  RH WIND       PRES   REMARKS
JACKSON        LGT RAIN  72  71  97 SW12      29.97F
6HR MIN TEMP:  71; 6HR MAX TEMP:  73; 6HR PCP:  0.36;

LAMBERTVILLE   CLOUDY    73  69  88 SW6       30.01F
6HR MIN TEMP:  73; 6HR MAX TEMP:  81;

LANSING        CLOUDY    73  68  84 SW5       29.95F
6HR MIN TEMP:  70; 6HR MAX TEMP:  73; 6HR PCP:  0.87;

LAPEER         PTSUNNY   76  71  86 SW8       29.97R
6HR MIN TEMP:  70; 6HR MAX TEMP:  76; 6HR PCP:  0.11;

MASON          CLOUDY    70  68  93 SW6       29.95F
MONROE         LGT RAIN  73  71  94 SW13      29.99S
PONTIAC        CLOUDY    73  71  93 SW7       29.96F
6HR MIN TEMP:  72; 6HR MAX TEMP:  77; 6HR PCP:  0.31;

PORT HOPE        N/A     79  70  74 SW13G18   29.91S
6HR MIN TEMP:  74; 6HR MAX TEMP:  79;

PORT HURON     LGT RAIN  73  72  94 S3        29.96S
TRI CITIES     CLOUDY    78  73  84 S13       29.93S
6HR MIN TEMP:  70; 6HR MAX TEMP:  78; 6HR PCP:  0.32;

MIDLAND        CLOUDY    78  70  78 S12       29.90F
6HR MIN TEMP:  69; 6HR MAX TEMP:  78; 6HR PCP:  0.24;

TROY           CLOUDY    76  71  85 SW7       29.97F
SAGINAW HB     CLOUDY    77  70  78 SW10G17   29.93S
$$
MIZ043>046-050>051-056>058-064>065-071>073-077>080-241900-
SOUTHWEST LOWER MICHIGAN

CITY           SKY/WX    TMP DP  RH WIND       PRES   REMARKS
BATTLE CREEK   CLOUDY    69  69 100 SE7       29.96F
6HR MIN TEMP:  67; 6HR MAX TEMP:  70; 6HR PCP:  1.03;

BENTON HARBOR  CLOUDY    80  72  76 SE10      29.93F
6HR MIN TEMP:  72; 6HR MAX TEMP:  81; 6HR PCP:  0.01;

BIG RAPIDS     CLOUDY    73  73 100 SE5       29.89F
6HR MIN TEMP:  70; 6HR MAX TEMP:  73; 6HR PCP:  0.24;

COLDWATER      CLOUDY    74  73  95 SE5       29.99F
6HR MIN TEMP:  72; 6HR MAX TEMP:  74;

FREMONT        RAIN      73  73 100 S9        29.89F
HOLLAND        CLOUDY    78  73  84 S14       29.92F
6HR MIN TEMP:  69; 6HR MAX TEMP:  78;

GRAND RAPIDS   CLOUDY    79  70  74 S8        29.94F
6HR MIN TEMP:  69; 6HR MAX TEMP:  79; 6HR PCP:  0.79;

IONIA          FAIR      75  69  80 SW12      29.94R
6HR MIN TEMP:  69; 6HR MAX TEMP:  75; 6HR PCP:  0.61;

KALAMAZOO      CLOUDY    77  71  82 S15       29.94F
6HR MIN TEMP:  71; 6HR MAX TEMP:  77; 6HR PCP:  0.90;

LUDINGTON      CLOUDY    81  73  75 S16G22    29.84S
6HR MIN TEMP:  70; 6HR MAX TEMP:  81; 6HR PCP:  0.43;

MARSHALL       RAIN      71  70  98 S5        29.97F
6HR MIN TEMP:  69; 6HR MAX TEMP:  73; 6HR PCP:  0.74;

MOUNT PLEASANT LGT RAIN  75  71  87 S9        29.90F
6HR MIN TEMP:  71; 6HR MAX TEMP:  78; 6HR PCP:  0.42;

MUSKEGON       CLOUDY    80  72  76 S13       29.91S
6HR MIN TEMP:  70; 6HR MAX TEMP:  81; 6HR PCP:  0.18;

$$
MIZ016>042-241900-
NORTHERN LOWER MICHIGAN

CITY           SKY/WX    TMP DP  RH WIND       PRES   REMARKS
ALPENA         CLOUDY    85  68  56 S14       29.84S
6HR MIN TEMP:  70; 6HR MAX TEMP:  86; 6HR PCP: TRACE;

BEAVER ISLAND  CLOUDY    73  70  89 SW10G17   29.82F
6HR MIN TEMP:  69; 6HR MAX TEMP:  75;

BELLAIRE       CLOUDY    79  72  79 S3        29.83S
6HR MIN TEMP:  72; 6HR MAX TEMP:  80;

CADILLAC       CLOUDY    73  70  91 S10       29.89F
CHARLEVOIX     CLOUDY    78  70  76 SW7       29.85F
FRANKFORT      CLOUDY    80  69  70 S13G20    29.83F
GAYLORD        CLOUDY    78  68  71 S12       29.87S
6HR MIN TEMP:  72; 6HR MAX TEMP:  82;

GRAYLING       CLOUDY    76  70  81 SW6       29.89R
6HR MIN TEMP:  71; 6HR MAX TEMP:  79;

HARBOR SPRINGS CLOUDY    76  71  84 CALM      29.83S
HOUGHTON LAKE  CLOUDY    74  69  85 S9        29.92R
6HR MIN TEMP:  70; 6HR MAX TEMP:  78; 6HR PCP:  0.07;

MANISTEE       CLOUDY    80  72  76 S10G17    29.83F
OSCODA         PTSUNNY   79  69  71 SW14G29   29.87F
6HR MIN TEMP:  69; 6HR MAX TEMP:  82; 6HR PCP:  0.01;

PELLSTON       CLOUDY    78  70  76 SW10      29.83S
6HR MIN TEMP:  68; 6HR MAX TEMP:  82;

ROGERS CITY    MOSUNNY   84  69  60 SW7G16    29.83F
TRAVERSE CITY  CLOUDY    81  71  71 SW8       29.81F
6HR MIN TEMP:  72; 6HR MAX TEMP:  81; 6HR PCP: TRACE;

$$
MIZ007>008-015-241900-
EASTERN UPPER MICHIGAN

CITY           SKY/WX    TMP DP  RH WIND       PRES   REMARKS
KINROSS        CLOUDY    71  68  90 SE10      29.84F
6HR MIN TEMP:  64; 6HR MAX TEMP:  72; 6HR PCP:  0.15;

MACKINAC ISLAN CLOUDY    71  67  87 CALM      29.83S FOG
6HR MIN TEMP:  64; 6HR MAX TEMP:  77;

NEWBERRY       CLOUDY    71  70  97 S9G17     29.80F FOG
6HR MIN TEMP:  65; 6HR MAX TEMP:  71; 6HR PCP:  0.01;

S. S. MARIE    CLOUDY    72  68  87 SE9       29.83S FOG
6HR MIN TEMP:  66; 6HR MAX TEMP:  73; 6HR PCP:  0.22;

MUNISING         N/A     80  73  79 S9G18     29.75F
6HR MIN TEMP:  68; 6HR MAX TEMP:  80;

$$
MIZ004>006-011>014-085-241900-
CENTRAL UPPER MICHIGAN

CITY           SKY/WX    TMP DP  RH WIND       PRES   REMARKS
MANISTIQUE     CLOUDY    69  68  97 S9        29.80S FOG
6HR MIN TEMP:  68; 6HR MAX TEMP:  71;

ESCANABA       CLOUDY    75  72  88 S7        29.77F
6HR MIN TEMP:  72; 6HR MAX TEMP:  75;

SAWYER-GWINN   PTSUNNY   81  70  69 SW12      29.79S
$$
MIZ001>003-009>011-084-241900-
WESTERN UPPER MICHIGAN

CITY           SKY/WX    TMP DP  RH WIND       PRES   REMARKS
IRON MOUNTAIN  CLOUDY    82  71  69 VRB5      29.78F
6HR MIN TEMP:  70; 6HR MAX TEMP:  83; 6HR PCP: TRACE;

HOUGHTON       CLOUDY    74  66  76 W13       29.76S
6HR MIN TEMP:  67; 6HR MAX TEMP:  74;

COPPER HARBOR    N/A     74  68  81 NW8       29.73R
6HR MIN TEMP:  67; 6HR MAX TEMP:  75;

IRONWOOD       MOSUNNY   79  68  69 W16       29.77S
6HR MIN TEMP:  68; 6HR MAX TEMP:  79;

$$

ABBREVIATIONS USED IN REMARKS
   TC - TEMPERATURE IN CELSIUS
  WCI - WIND CHILL INDEX
   HX - HEAT INDEX
  VSB - VISIBILITY





USA.gov is the U.S. government's official web portal to all federal, state and local government web resources and services.